• In Russia
  • List of Countries
  • For 7 days
  • Water Temperature
  • Satellite Maps
  • Weather Map
  • Weather Widgets
  • user-avatar
    Login

    Hourly Weather Nashavar

    Today, 20 February, Wednesday

    Time Temperature Precipitation Wind Pressure Humidity
    00:00 +13°C° 0.8 mm 2 mps 735 mmHg 71%
    01:00 +12°C° 0.8 mm 2 mps 735 mmHg 74%
    02:00 +10°C° 0.8 mm 3 mps 735 mmHg 76%
    03:00 +10°C° 0.3 mm 3 mps 735 mmHg 75%
    04:00 +10°C° 0.3 mm 3 mps 735 mmHg 73%
    05:00 +11°C° 0 mm 3 mps 734 mmHg 70%
    06:00 +10°C° 0.6 mm 2 mps 734 mmHg 70%
    07:00 +10°C° 0.6 mm 2 mps 734 mmHg 71%
    08:00 +10°C° 0.6 mm 2 mps 734 mmHg 72%
    09:00 +10°C° 1.2 mm 2 mps 734 mmHg 72%
    10:00 +10°C° 1.2 mm 2 mps 734 mmHg 73%
    11:00 +10°C° 0 mm 2 mps 734 mmHg 75%
    12:00 +10°C° 2.2 mm 2 mps 734 mmHg 76%
    13:00 +10°C° 2.2 mm 2 mps 733 mmHg 78%
    14:00 +10°C° 2.2 mm 2 mps 733 mmHg 80%
    15:00 +9°C° 2.9 mm 2 mps 732 mmHg 82%
    16:00 +9°C° 2.9 mm 3 mps 732 mmHg 85%
    17:00 +9°C° 2.9 mm 3 mps 731 mmHg 87%
    18:00 +9°C° 2.8 mm 2 mps 731 mmHg 87%
    19:00 +9°C° 2.8 mm 2 mps 731 mmHg 86%
    20:00 +9°C° 2.8 mm 2 mps 730 mmHg 86%
    21:00 +9°C° 0.4 mm 2 mps 730 mmHg 85%
    22:00 +9°C° 0.4 mm 2 mps 730 mmHg 84%
    23:00 +10°C° 0.4 mm 2 mps 730 mmHg 82%

    Tomorrow, 21 February, Thursday

    Time Temperature Precipitation Wind Pressure Humidity
    00:00 +10°C° 0.1 mm 2 mps 730 mmHg 82%
    01:00 +11°C° 0.1 mm 1 mps 730 mmHg 82%
    02:00 +11°C° 0.1 mm 1 mps 729 mmHg 81%
    03:00 +11°C° 0 mm 1 mps 730 mmHg 82%
    04:00 +10°C° 0 mm 1 mps 730 mmHg 82%
    05:00 +10°C° 0 mm 1 mps 730 mmHg 83%
    06:00 +10°C° 0 mm 1 mps 730 mmHg 81%
    07:00 +11°C° 0 mm 1 mps 731 mmHg 79%
    08:00 +11°C° 0 mm 1 mps 731 mmHg 77%
    09:00 +12°C° 0 mm 1 mps 732 mmHg 71%
    10:00 +14°C° 0 mm 1 mps 732 mmHg 66%
    11:00 +15°C° 0 mm 1 mps 732 mmHg 60%
    12:00 +16°C° 0 mm 1 mps 732 mmHg 58%
    13:00 +16°C° 0 mm 1 mps 732 mmHg 55%
    14:00 +17°C° 0 mm 2 mps 732 mmHg 52%
    15:00 +17°C° 0.1 mm 2 mps 732 mmHg 50%
    16:00 +17°C° 0.1 mm 2 mps 732 mmHg 47%
    17:00 +17°C° 0.1 mm 2 mps 731 mmHg 45%
    18:00 +16°C° 0 mm 2 mps 732 mmHg 46%
    19:00 +15°C° 0 mm 2 mps 733 mmHg 46%
    20:00 +14°C° 0 mm 2 mps 733 mmHg 46%
    21:00 +13°C° 0 mm 2 mps 733 mmHg 45%
    22:00 +13°C° 0 mm 2 mps 734 mmHg 44%
    23:00 +12°C° 0 mm 2 mps 734 mmHg 42%

    Day after tomorrow, 22 February, Friday

    Time Temperature Precipitation Wind Pressure Humidity
    00:00 +12°C° 0 mm 2 mps 734 mmHg 42%
    01:00 +12°C° 0 mm 2 mps 734 mmHg 41%
    02:00 +10°C° 0 mm 2 mps 734 mmHg 41%
    03:00 +10°C° 0 mm 2 mps 734 mmHg 40%
    04:00 +10°C° 0 mm 2 mps 734 mmHg 40%
    05:00 +9°C° 0 mm 3 mps 734 mmHg 40%
    06:00 +10°C° 0 mm 3 mps 734 mmHg 40%
    07:00 +10°C° 0 mm 3 mps 735 mmHg 40%
    08:00 +10°C° 0 mm 3 mps 735 mmHg 40%
    09:00 +12°C° 0 mm 3 mps 735 mmHg 37%
    10:00 +13°C° 0 mm 3 mps 735 mmHg 33%
    11:00 +16°C° 0 mm 3 mps 736 mmHg 29%
    12:00 +17°C° 0 mm 3 mps 735 mmHg 28%
    13:00 +18°C° 0 mm 3 mps 735 mmHg 26%
    14:00 +19°C° 0 mm 3 mps 734 mmHg 25%
    15:00 +19°C° 0 mm 3 mps 734 mmHg 26%
    16:00 +19°C° 0 mm 3 mps 734 mmHg 27%
    17:00 +18°C° 0 mm 3 mps 734 mmHg 28%
    18:00 +17°C° 0 mm 3 mps 734 mmHg 29%
    19:00 +15°C° 0 mm 4 mps 735 mmHg 30%
    20:00 +14°C° 0 mm 4 mps 735 mmHg 32%
    21:00 +13°C° 0 mm 4 mps 735 mmHg 32%
    22:00 +13°C° 0 mm 4 mps 735 mmHg 33%
    23:00 +12°C° 0 mm 3 mps 736 mmHg 33%

    23 February, Saturday

    Time Temperature Precipitation Wind Pressure Humidity
    00:00 +12°C° 0 mm 3 mps 735 mmHg 34%
    01:00 +11°C° 0 mm 3 mps 735 mmHg 35%
    02:00 +11°C° 0 mm 3 mps 735 mmHg 36%
    03:00 +11°C° 0 mm 3 mps 734 mmHg 37%
    04:00 +10°C° 0 mm 3 mps 734 mmHg 37%
    05:00 +10°C° 0 mm 3 mps 734 mmHg 38%
    06:00 +10°C° 0 mm 3 mps 734 mmHg 37%
    07:00 +10°C° 0 mm 3 mps 734 mmHg 36%
    08:00 +11°C° 0 mm 3 mps 734 mmHg 36%
    09:00 +12°C° 0 mm 3 mps 733 mmHg 32%
    10:00 +14°C° 0 mm 4 mps 733 mmHg 28%
    11:00 +17°C° 0 mm 4 mps 733 mmHg 24%
    12:00 +18°C° 0 mm 4 mps 732 mmHg 23%
    13:00 +19°C° 0 mm 4 mps 732 mmHg 21%
    14:00 +20°C° 0 mm 4 mps 731 mmHg 20%
    15:00 +19°C° 0 mm 4 mps 731 mmHg 21%
    16:00 +19°C° 0 mm 4 mps 730 mmHg 22%
    17:00 +19°C° 0 mm 3 mps 730 mmHg 24%
    18:00 +17°C° 0 mm 4 mps 730 mmHg 25%
    19:00 +15°C° 0 mm 4 mps 730 mmHg 26%
    20:00 +14°C° 0 mm 4 mps 731 mmHg 27%
    21:00 +14°C° 0 mm 4 mps 731 mmHg 27%
    22:00 +13°C° 0 mm 3 mps 731 mmHg 28%
    23:00 +13°C° 0 mm 3 mps 731 mmHg 28%

    24 February, Sunday

    Time Temperature Precipitation Wind Pressure Humidity
    00:00 +12°C° 0 mm 3 mps 731 mmHg 28%
    01:00 +12°C° 0 mm 3 mps 730 mmHg 28%
    02:00 +12°C° 0 mm 3 mps 730 mmHg 28%
    03:00 +11°C° 0 mm 3 mps 730 mmHg 28%
    04:00 +11°C° 0 mm 3 mps 729 mmHg 28%
    05:00 +11°C° 0 mm 3 mps 729 mmHg 28%
    06:00 +11°C° 0 mm 3 mps 729 mmHg 29%
    07:00 +11°C° 0 mm 3 mps 730 mmHg 29%
    08:00 +11°C° 0 mm 3 mps 730 mmHg 30%
    09:00 +13°C° 0 mm 3 mps 730 mmHg 27%
    10:00 +14°C° 0 mm 4 mps 730 mmHg 24%
    11:00 +17°C° 0 mm 4 mps 730 mmHg 21%
    12:00 +18°C° 0 mm 4 mps 730 mmHg 20%
    13:00 +19°C° 0 mm 4 mps 729 mmHg 19%
    14:00 +19°C° 0 mm 4 mps 729 mmHg 18%
    15:00 +19°C° 0 mm 4 mps 729 mmHg 20%
    16:00 +19°C° 0 mm 4 mps 728 mmHg 21%
    17:00 +18°C° 0 mm 4 mps 728 mmHg 23%
    18:00 +17°C° 0 mm 4 mps 729 mmHg 26%
    19:00 +15°C° 0 mm 4 mps 729 mmHg 29%
    20:00 +13°C° 0 mm 4 mps 730 mmHg 32%
    21:00 +13°C° 0 mm 4 mps 730 mmHg 32%
    22:00 +12°C° 0 mm 4 mps 730 mmHg 33%
    23:00 +12°C° 0 mm 3 mps 730 mmHg 33%

    25 February, Monday

    Time Temperature Precipitation Wind Pressure Humidity
    00:00 +11°C° 0 mm 3 mps 730 mmHg 33%
    01:00 +11°C° 0 mm 3 mps 729 mmHg 32%
    02:00 +11°C° 0 mm 3 mps 729 mmHg 32%
    03:00 +10°C° 0 mm 3 mps 729 mmHg 32%
    04:00 +10°C° 0 mm 3 mps 729 mmHg 32%
    05:00 +10°C° 0 mm 3 mps 729 mmHg 32%
    06:00 +10°C° 0 mm 3 mps 729 mmHg 33%
    07:00 +10°C° 0 mm 3 mps 729 mmHg 33%
    08:00 +10°C° 0 mm 3 mps 730 mmHg 33%
    09:00 +12°C° 0 mm 4 mps 730 mmHg 30%
    10:00 +14°C° 0 mm 4 mps 730 mmHg 26%
    11:00 +15°C° 0 mm 4 mps 730 mmHg 22%
    12:00 +17°C° 0 mm 4 mps 729 mmHg 21%
    13:00 +18°C° 0 mm 4 mps 729 mmHg 20%
    14:00 +19°C° 0 mm 4 mps 728 mmHg 19%
    15:00 +18°C° 0 mm 4 mps 728 mmHg 20%
    16:00 +18°C° 0 mm 4 mps 728 mmHg 22%
    17:00 +18°C° 0 mm 4 mps 728 mmHg 23%
    18:00 +15°C° 0 mm 4 mps 728 mmHg 26%
    19:00 +14°C° 0 mm 4 mps 729 mmHg 28%
    20:00 +13°C° 0 mm 4 mps 729 mmHg 31%
    21:00 +12°C° 0 mm 4 mps 730 mmHg 31%
    22:00 +12°C° 0 mm 4 mps 730 mmHg 30%
    23:00 +11°C° 0 mm 4 mps 730 mmHg 30%
    Show more